Station GISL1 - 8761724 - Grand Isle, LA Image indicating link to RSS feed of recent meteorological observations for station GISL1


Conditions at GISL1 as of
(11:18 am CDT)
1618 GMT on 05/28/2024:
     

Click on the graph icon in the table below to see a time series plot of the last five days of that observation.

5-day plot - Wind Direction Wind Direction (WDIR): E ( 90 deg true )
5-day plot - Wind Speed Wind Speed (WSPD): 4.1 kts
5-day plot - Wind Gust Wind Gust (GST): 6.0 kts
5-day plot - Atmospheric Pressure Atmospheric Pressure (PRES):30.07 in
5-day plot - Air Temperature Air Temperature (ATMP): 86.2 °F
5-day plot - Water Temperature Water Temperature (WTMP): 84.0 °F
5-day plot - Wind Speed at 10 Meters Wind Speed at 10 meters (WSPD10M): 3.9 kts
5-day plot - Wind Speed at 20 Meters Wind Speed at 20 meters (WSPD20M): 3.9 kts
5-day plot -  Wind Speed, Wind Gust and Atmospheric Pressure Combined plot of Wind Speed, Gust, and Air Pressure
NOS Water Level Observation Network Water Level
Previous observations
TIME
(CDT)
5-day plot - Wind Direction
WDIR
 
5-day plot - Wind Speed
WSPD
kts
5-day plot - Wind Gust
GST
kts
5-day plot - Wave Height
WVHT
ft
5-day plot - Dominant Wave Period
DPD
sec
5-day plot - Average Wave Period
APD
sec
5-day plot - Mean Wave Direction
MWD
 
5-day plot - Atmospheric Pressure
PRES
in
5-day plot - Pressure Tendency
PTDY
in
5-day plot - Air Temperature
ATMP
°F
5-day plot - Water Temperature
WTMP
°F
5-day plot - Dew Point
DEWP
°F
5-day plot - Salinity
SAL
psu
5-day plot - Visibility
VIS
nmi
5-day plot - Tide (above MLLW)
TIDE
ft
2024-05-28 11:12 amESE 2.9 6.0----30.07- 85.6 84.0----
2024-05-28 11:06 am E 4.1 6.0----30.07- 85.6 84.0----
2024-05-28 11:00 am E 5.1 7.0----30.07+0.03 85.6 84.0----
2024-05-28 10:54 am E 5.1 6.0----30.07- 85.6 84.0----
2024-05-28 10:48 amENE 5.1 7.0----30.07- 85.3 84.2----
2024-05-28 10:42 amENE 5.1 6.0----30.06- 84.6 84.0----
2024-05-28 10:36 amENE 5.1 7.0----30.06- 84.4 84.0----
2024-05-28 10:30 am E 6.0 8.0----30.06- 85.5 84.0----
2024-05-28 10:24 amENE 5.1 6.0----30.06- 85.1 84.0----
2024-05-28 10:18 am NE 4.1 5.1----30.06- 85.6 84.0----
2024-05-28 10:12 amNNE 4.1 5.1----30.06- 85.6 84.0----
2024-05-28 10:06 amNNE 4.1 7.0----30.06- 86.0 84.0----
2024-05-28 10:00 amNNE 4.1 6.0----30.06+0.01 85.5 84.0----
2024-05-28 09:54 amNNE 4.1 5.1----30.06- 85.8 84.0----
2024-05-28 09:48 amNNE 2.9 7.0----30.05- 84.9 84.0----
2024-05-28 09:42 am NE 4.1 6.0----30.05- 84.6 84.2----
2024-05-28 09:36 am NE 4.1 6.0----30.05- 83.8 84.2----
2024-05-28 09:30 am NE 4.1 7.0----30.05- 84.4 84.0----
2024-05-28 09:24 am NE 4.1 7.0----30.05- 84.2 84.2----
2024-05-28 09:18 am NE 5.1 7.0----30.05- 84.0 84.0----
2024-05-28 09:12 am NE 4.1 7.0----30.05- 84.7 84.0----
2024-05-28 09:06 amNNE 5.1 8.0----30.04- 84.7 84.0----
2024-05-28 09:00 amNNE 5.1 8.0----30.04+0.03 84.7 84.0----
2024-05-28 08:54 amNNE 5.1 7.0----30.04- 84.2 84.0----
2024-05-28 08:48 amNNE 6.0 7.0----30.04- 84.0 84.0----
2024-05-28 08:42 amNNE 5.1 7.0----30.04- 83.8 84.0----
2024-05-28 08:36 am N 6.0 7.0----30.04- 83.3 84.0----
2024-05-28 08:30 amNNE 5.1 6.0----30.04- 83.3 83.8----
2024-05-28 08:24 amNNE 5.1 8.0----30.04- 83.3 84.0----
2024-05-28 08:18 am N 5.1 8.0----30.04- 83.3 83.8----
2024-05-28 08:12 amNNE 5.1 6.0----30.04- 83.5 83.8----
2024-05-28 08:06 am N 4.1 6.0----30.04- 84.0 84.0----
2024-05-28 08:00 amNNE 2.9 5.1----30.04+0.02 83.7 84.0----
2024-05-28 07:54 am N 4.1 5.1----30.04- 83.3 83.8----
2024-05-28 07:48 am N 4.1 5.1----30.04- 83.5 83.8----
2024-05-28 07:42 amNNW 4.1 6.0----30.04- 82.8 83.8----
2024-05-28 07:36 am N 5.1 6.0----30.04- 82.4 83.8----
2024-05-28 07:30 am N 4.1 5.1----30.05- 82.0 83.8----
2024-05-28 07:24 amNNW 5.1 6.0----30.04- 82.0 83.8----
2024-05-28 07:18 am NW 5.1 6.0----30.04- 82.2 84.0----
2024-05-28 07:12 am NW 4.1 4.1----30.04- 82.0 83.8----
2024-05-28 07:06 amNNW 2.9 4.1----30.04- 81.7 84.0----
2024-05-28 07:00 am NW 2.9 5.1----30.04+0.03 81.5 84.0----
2024-05-28 06:54 am NW 4.1 5.1----30.04- 81.7 83.8----
2024-05-28 06:48 am NW 4.1 5.1----30.04- 81.5 83.8----
2024-05-28 06:42 am NW 4.1 6.0----30.04- 81.7 84.0----
2024-05-28 06:36 amWNW 7.0 8.0----30.04- 81.7 84.0----
2024-05-28 06:30 amWNW 4.1 7.0----30.04- 81.7 84.0----
2024-05-28 06:24 amWNW 7.0 8.9----30.04- 81.9 83.8----
2024-05-28 06:18 amWNW 8.0 8.9----30.03- 81.7 84.0----
2024-05-28 06:12 amWNW 8.0 9.9----30.03- 81.5 83.8----
2024-05-28 06:06 am W 8.0 8.9----30.02- 81.3 83.8----
2024-05-28 06:00 am W 6.0 8.0----30.02+0.00 81.1 83.8----
2024-05-28 05:54 am W 8.0 9.9----30.01- 81.0 83.8----
2024-05-28 05:48 am W 8.0 9.9----30.01- 81.0 83.8----
2024-05-28 05:42 am W 6.0 7.0----30.01- 81.1 83.8----
2024-05-28 05:36 am W 6.0 6.0----30.01- 81.5 83.8----
2024-05-28 05:30 amWSW 2.9 4.1----30.02- 81.3 83.8----
2024-05-28 05:24 am SW 1.9 2.9----30.02- 81.3 84.0----
2024-05-28 05:18 am- 0.0 1.0----30.02- 81.1 84.0----
2024-05-28 05:12 amSSW 1.0 2.9----30.02- 81.3 84.0----
2024-05-28 05:06 am S 1.9 2.9----30.02- 81.1 84.0----
2024-05-28 05:00 amSSE 1.9 2.9----30.03+0.02 81.1 84.0----
2024-05-28 04:54 am S 1.0 2.9----30.02- 81.1 84.0----
2024-05-28 04:48 amSSW 1.9 2.9----30.02- 81.0 84.0----
2024-05-28 04:42 amSSW 1.0 1.9----30.02- 81.1 84.0----
2024-05-28 04:36 am- 0.0 1.0----30.02- 81.1 84.0----
2024-05-28 04:30 am- 0.0 1.9----30.02- 81.1 84.0----
2024-05-28 04:24 am- 0.0 1.0----30.02- 81.1 84.0----
2024-05-28 04:18 am SE 1.0 1.9----30.02- 81.3 84.0----
2024-05-28 04:12 amWNW 2.9 5.1----30.02- 81.7 84.0----
2024-05-28 04:06 am W 2.9 4.1----30.02- 81.3 84.0----
2024-05-28 04:00 amSSW 1.0 1.9----30.02+0.02 81.0 84.0----
2024-05-28 03:54 am- 0.0 1.9----30.02- 81.1 84.0----
2024-05-28 03:48 amWSW 2.9 5.1----30.01- 81.7 84.0----
2024-05-28 03:42 amWNW 2.9 4.1----30.01- 81.5 84.0----
2024-05-28 03:36 am W 2.9 5.1----30.01- 81.7 84.0----
2024-05-28 03:30 am W 4.1 5.1----30.01- 81.3 84.0----
2024-05-28 03:24 am W 4.1 5.1----30.01- 81.1 84.0----
2024-05-28 03:18 amWSW 2.9 5.1----30.01- 81.1 84.0----
2024-05-28 03:12 amWSW 2.9 5.1----30.02- 81.1 84.0----
2024-05-28 03:06 am W 2.9 4.1----30.01- 81.1 84.0----
2024-05-28 03:00 amWSW 1.9 4.1----30.01+0.02 81.0 84.0----
2024-05-28 02:54 am SW 2.9 4.1----30.01- 80.8 84.0----
2024-05-28 02:48 am SW 1.9 2.9----30.01- 80.8 84.0----
2024-05-28 02:42 am W 1.9 2.9----30.01- 81.0 84.0----
2024-05-28 02:36 amWSW 1.9 4.1----30.01- 80.8 84.0----
2024-05-28 02:30 amWSW 1.9 4.1----30.01- 80.8 84.2----
2024-05-28 02:24 am SW 1.9 4.1----30.01- 80.8 84.2----
2024-05-28 02:18 amWSW 2.9 4.1----30.01- 81.0 84.2----
2024-05-28 02:12 amWSW 2.9 4.1----30.01- 80.8 84.2----
2024-05-28 02:06 amWSW 2.9 5.1----30.01- 80.8 84.2----
2024-05-28 02:00 amWSW 2.9 5.1----30.01+0.01 81.0 84.2----
2024-05-28 01:54 amWSW 2.9 5.1----30.01- 80.6 84.4----
2024-05-28 01:48 amSSW 2.9 5.1----30.01- 80.8 84.4----
2024-05-28 01:42 am SW 1.9 4.1----30.01- 80.8 84.2----
2024-05-28 01:36 am SW 1.9 5.1----30.01- 81.0 84.2----
2024-05-28 01:30 amWSW 4.1 4.1----30.01- 81.0 84.2----
2024-05-28 01:24 amWSW 2.9 4.1----30.00- 81.0 84.2----
2024-05-28 01:18 am SW 1.9 2.9----30.00- 80.8 84.4----
2024-05-28 01:12 am SW 2.9 4.1----30.00- 80.8 84.4----
2024-05-28 01:06 am SW 1.9 4.1----30.00- 80.8 84.4----
2024-05-28 01:00 am SW 1.9 4.1----30.00+0.02 80.8 84.6----
2024-05-28 12:54 amSSW 2.9 4.1----30.00- 80.8 84.6----
2024-05-28 12:48 am SW 1.9 5.1----29.99- 80.8 84.6----
2024-05-28 12:42 am SW 2.9 5.1----30.00- 80.8 84.6----
2024-05-28 12:36 am SW 4.1 6.0----30.00- 81.0 84.6----
2024-05-28 12:30 am SW 4.1 5.1----30.00- 81.0 84.7----
2024-05-28 12:24 am SW 2.9 5.1----29.99- 81.0 84.7----
2024-05-28 12:18 am SW 4.1 5.1----29.99- 81.0 84.7----
2024-05-28 12:12 am SW 4.1 5.1----29.99- 81.1 84.7----
2024-05-28 12:06 amWSW 4.1 6.0----30.00- 81.1 84.7----
2024-05-28 12:00 am SW 4.1 6.0----29.99+0.04 81.1 84.7----
2024-05-27 11:54 pm SW 2.9 5.1----29.99- 81.1 84.7----
2024-05-27 11:48 pm SW 2.9 5.1----29.99- 81.3 84.7----
2024-05-27 11:42 pmWSW 4.1 5.1----30.00- 81.5 84.7----
2024-05-27 11:36 pmWSW 2.9 6.0----30.00- 81.5 84.7----
2024-05-27 11:30 pmWSW 2.9 6.0----30.00- 81.5 84.9----
2024-05-27 11:24 pmWSW 2.9 5.1----30.00- 81.7 84.7----
2024-05-27 11:18 pmWSW 2.9 6.0----30.00- 81.7 84.9----
2024-05-27 11:12 pmWSW 5.1 6.0----30.00- 81.7 84.9----
2024-05-27 11:06 pmWSW 4.1 7.0----30.00- 81.7 84.9----
2024-05-27 11:00 pmWSW 4.1 6.0----30.00+0.07 81.7 84.9----
2024-05-27 10:54 pmWSW 4.1 7.0----30.00- 81.7 84.9----
2024-05-27 10:48 pmWSW 6.0 8.0----30.00- 81.7 84.7----
2024-05-27 10:42 pm SW 2.9 6.0----29.99- 81.9 84.9----
2024-05-27 10:36 pmWSW 4.1 6.0----30.00- 82.0 84.9----
2024-05-27 10:30 pmWSW 5.1 8.0----29.99- 82.0 84.9----
2024-05-27 10:24 pmWSW 4.1 8.0----30.00- 81.9 84.9----
2024-05-27 10:18 pmWSW 4.1 7.0----29.99- 81.9 84.9----
2024-05-27 10:12 pm SW 4.1 5.1----29.99- 81.9 84.9----
2024-05-27 10:06 pm SW 4.1 6.0----29.98- 82.0 84.9----
2024-05-27 10:00 pm SW 4.1 7.0----29.98+0.06 82.0 84.9----
2024-05-27 09:54 pmWSW 5.1 8.0----29.98- 82.0 84.9----
2024-05-27 09:48 pmWSW 4.1 6.0----29.98- 82.2 84.9----
2024-05-27 09:42 pmWSW 6.0 8.9----29.98- 82.2 84.9----
2024-05-27 09:36 pm SW 5.1 8.9----29.97- 82.2 84.9----
2024-05-27 09:30 pmWSW 5.1 8.0----29.97- 82.2 84.9----
2024-05-27 09:24 pm SW 5.1 8.9----29.97- 82.2 84.9----
2024-05-27 09:18 pmWSW 5.1 8.0----29.97- 82.2 84.9----
2024-05-27 09:12 pm SW 5.1 7.0----29.96- 82.2 84.9----
2024-05-27 09:06 pm SW 5.1 8.0----29.96- 82.2 84.9----
2024-05-27 09:00 pm SW 5.1 8.0----29.95+0.03 82.2 85.1----
2024-05-27 08:54 pm SW 6.0 8.0----29.95- 82.2 85.1----
2024-05-27 08:48 pm SW 6.0 8.0----29.95- 82.2 85.1----
2024-05-27 08:42 pm SW 2.9 6.0----29.94- 82.2 85.1----
2024-05-27 08:36 pm SW 4.1 7.0----29.94- 82.4 85.1----
2024-05-27 08:30 pm SW 6.0 9.9----29.94- 82.4 85.1----
2024-05-27 08:24 pm SW 6.0 8.9----29.93- 82.4 85.1----
2024-05-27 08:18 pm SW 6.0 8.9----29.93- 82.4 85.1----
2024-05-27 08:12 pm SW 5.1 8.0----29.93- 82.4 85.1----
2024-05-27 08:06 pm SW 6.0 8.9----29.93- 82.4 85.1----
2024-05-27 08:00 pm SW 5.1 12.0----29.93- 82.4 85.1----
2024-05-27 07:54 pm SW 8.0 12.0----29.93- 82.2 85.3----
2024-05-27 07:48 pmSSW 5.1 8.9----29.93- 82.4 85.3----
2024-05-27 07:42 pm SW 6.0 8.9----29.93- 82.4 85.1----
2024-05-27 07:36 pmSSW 6.0 9.9----29.93- 82.6 85.3----
2024-05-27 07:30 pmSSW 5.1 8.0----29.93- 82.6 84.9----
2024-05-27 07:24 pmSSW 5.1 8.0----29.93- 82.8 84.9----
2024-05-27 07:18 pmSSW 6.0 8.9----29.93- 82.8 84.9----
2024-05-27 07:12 pmSSW 7.0 8.9----29.93- 82.9 84.7----
2024-05-27 07:06 pm SW 6.0 9.9----29.92- 83.1 84.9----
2024-05-27 07:00 pmSSW 6.0 8.9----29.92-0.01 83.1 84.7----
2024-05-27 06:54 pmSSW 6.0 8.9----29.92- 83.3 84.7----
2024-05-27 06:48 pm SW 6.0 8.9----29.92-- 84.7----
2024-05-27 06:42 pmSSW 6.0 8.9----29.92-- 84.6----
2024-05-27 06:36 pmSSW 5.1 8.9----29.92-- 84.6----
2024-05-27 06:30 pmSSW 6.0 8.9----29.93- 83.3 84.6----
2024-05-27 06:24 pmSSW 7.0 11.1----29.93- 83.5 84.4----
2024-05-27 06:18 pmSSW 6.0 11.1----29.93- 83.7 84.4----
2024-05-27 06:12 pm SW 7.0 12.0----29.92- 83.7 84.4----
2024-05-27 06:06 pmSSW 5.1 11.1----29.92- 84.0 84.4----
2024-05-27 06:00 pmSSW 7.0 12.0----29.93-0.02 83.5 84.7----
2024-05-27 05:54 pmSSW 8.9 12.0----29.93- 83.5 84.4----
2024-05-27 05:48 pmSSW 8.0 13.0----29.93- 83.5 84.4----
2024-05-27 05:42 pmSSW 7.0 11.1----29.93- 83.8 84.4----
2024-05-27 05:36 pmSSW 7.0 9.9----29.93- 83.7 84.4----
2024-05-27 05:30 pmSSW 6.0 9.9----29.93- 84.2 84.4----
2024-05-27 05:24 pm SW 8.9 11.1----29.93- 83.7 84.6----
2024-05-27 05:18 pmSSW 7.0 11.1----29.93- 83.8 84.2----
2024-05-27 05:12 pmSSW 8.0 12.0----29.93- 83.7 84.2----
2024-05-27 05:06 pmSSW 8.9 12.0----29.93- 83.8 84.2----
2024-05-27 05:00 pm--------- 84.2 84.2----
2024-05-27 04:54 pm--------- 84.2 84.2----
2024-05-27 04:48 pmSSW 8.0 12.0----29.93- 84.0 84.2----
2024-05-27 04:42 pmSSW 7.0 12.0----29.93- 83.8 84.2----
2024-05-27 04:36 pmSSW 8.9 12.0----29.93- 83.8 84.2----
2024-05-27 04:30 pm S 8.9 13.0----29.93-- 84.2----
2024-05-27 04:24 pmSSW 7.0 12.0----29.93-- 84.0----
2024-05-27 04:18 pmSSW 9.9 13.0----29.93- 84.0 84.2----
2024-05-27 04:12 pmSSW 8.0 11.1----29.93- 83.7 84.0----
2024-05-27 04:06 pm S 8.0 12.0----29.93- 83.8 84.0----
2024-05-27 04:00 pmSSW 8.0 12.0----29.93-0.04 84.4 84.0----
2024-05-27 03:54 pm S 6.0 11.1----29.93- 84.6 84.0----
2024-05-27 03:48 pmSSW 8.9 11.1----29.93- 83.7 84.0----
2024-05-27 03:42 pm SW 8.0 12.0----29.93- 84.0 84.0----
2024-05-27 03:36 pm S 8.0 11.1----29.94- 84.2 84.0----
2024-05-27 03:30 pm-------29.94- 84.2 84.2----
2024-05-27 03:24 pm-------29.93- 84.2 84.0----
2024-05-27 03:18 pmSSW 8.0 11.1----29.93- 84.0 84.0----
2024-05-27 03:12 pm S 8.0 11.1----29.94- 83.8 84.0----
2024-05-27 03:06 pmSSW 8.0 12.0----29.95- 83.5 84.0----
2024-05-27 03:00 pm SW 6.0 9.9----29.95-0.03 83.7 83.8----
2024-05-27 02:54 pm S 8.0 11.1----29.95- 83.5 84.0----
2024-05-27 02:48 pmSSW 6.0 8.9------ 83.8 84.2----
2024-05-27 02:42 pmSSW 8.0 11.1------ 83.8 84.0----
2024-05-27 02:36 pmSSW 7.0 11.1------ 84.0 84.0----
2024-05-27 02:30 pmSSW 6.0 9.9----29.96- 84.0 84.2----
2024-05-27 02:24 pmSSW 8.9 11.1----29.96- 83.5 84.0----
2024-05-27 02:18 pmSSW 8.0 11.1----29.96- 83.7 84.0----
2024-05-27 02:12 pmSSW 6.0 9.9----29.96- 84.0 84.0----
2024-05-27 02:06 pmSSW 7.0 11.1----29.96- 83.5 84.0----
2024-05-27 02:00 pmSSW 8.0 11.1----29.96-0.02 83.5 84.2----
2024-05-27 01:54 pmSSW 7.0 12.0----29.96- 83.7 83.8----
2024-05-27 01:48 pmSSW 7.0 11.1----29.96- 83.7 83.8----
2024-05-27 01:42 pmSSW 8.0 11.1----29.96- 83.5 83.8----
2024-05-27 01:36 pmSSW 7.0 11.1----29.96- 83.7 83.8----
2024-05-27 01:30 pmSSW 5.1 9.9----29.96- 83.8 83.8----
2024-05-27 01:24 pm S 7.0 11.1----29.96- 83.8 83.8----
2024-05-27 01:18 pm S 7.0 9.9----29.97- 83.7 83.8----
2024-05-27 01:12 pmSSW 5.1 9.9----29.97- 84.0 83.8----
2024-05-27 01:06 pm SW 8.0 9.9----29.97- 83.7 83.8----
2024-05-27 01:00 pmSSW 6.0 11.1----29.97+0.01 83.8 83.8----
2024-05-27 12:54 pmSSW 6.0 9.9----29.97- 84.0 83.8----
2024-05-27 12:48 pm S 7.0 8.9----29.97-- 83.8----
2024-05-27 12:42 pm S 8.0 11.1----29.97-- 83.8----
2024-05-27 12:36 pm S 8.0 12.0----29.97-- 83.8----
2024-05-27 12:30 pm S 8.0 12.0----29.97- 84.0 83.8----
2024-05-27 12:24 pmSSW 6.0 9.9----29.98- 84.0 83.8----
2024-05-27 12:18 pmSSW 8.0 11.1----29.98- 83.7 83.7----
2024-05-27 12:12 pmSSW 6.0 9.9----29.98- 84.2 83.7----
2024-05-27 12:06 pmSSW 8.0 11.1----29.98- 83.8 83.7----
2024-05-27 12:00 pm S 6.0 12.0----29.98+0.03 84.0 83.7----
2024-05-27 11:54 am S 8.9 11.1----29.98- 83.7 83.7----
2024-05-27 11:48 amSSW 8.0 9.9----29.98- 83.3 83.7----
2024-05-27 11:42 am S 7.0 11.1----29.98- 83.8 83.7----
2024-05-27 11:36 am S 8.0 12.0----29.98- 83.1 83.7----
2024-05-27 11:30 amSSW 7.0 9.9----29.98- 83.5 83.7----
2024-05-27 11:24 amSSW 7.0 11.1----29.98- 83.5 83.7----
2024-05-27 11:18 amSSW 7.0 9.9----29.98- 83.1 83.7----
2024-05-27 11:12 amSSW 8.0 11.1----29.98- 82.8 83.7----
2024-05-27 11:06 amSSW 5.1 9.9----29.98- 83.1 83.5----
2024-05-27 11:00 amSSW 7.0 12.0----29.98+0.06 83.1 83.5----
2024-05-27 10:54 amSSW 7.0 11.1----29.97- 83.5 83.5----